Weather in Protopopovka

Russia / Omsk Oblast     55°05′58″N   72°36′36″E
temp.,
°C
wind,
m/s
gust,
m/s
humid.,
%
clouds,
%
prec.,
mm/h
press.,
hPa
HPBL,
m
28 february, sun
sun2800:00−28se47999 0.0 103099
03:00−25se489783 0.0 1027178
06:00−23se599391 0.0 1025247
09:00−21ese51096100 0.1 1022294
12:00−18ese61095100 0.3 1019337
15:00−16ese61094100 0.1 1017395
18:00−15e61194100 0.1 1015389
21:00−15e71394100 0.3 1012345
1 march, mon
mon100:00−15e71195100 0.6 1009330
03:00−14ene61295100 1.1 1007345
06:00−14ene61095100 1.6 1006333
09:00−14ne6995100 1.1 1006328
12:00−13ne5894100 1.8 1007347
15:00−12nne4693100 0.2 1009405
18:00−13n369499 0.4 1012311
21:00−16nnw339780 0.1 101431
2 march, tue
tue200:00−19nw239875 0.1 101620
03:00−20wnw2210079 0.0 101720
06:00−18wsw229886 0.1 101758
09:00−18sw129795 0.2 101643
12:00−15ssw229292 0.2 1016235
15:00−13ssw2389100 0.1 1015381
18:00−14ssw1296100 0.3 101490
21:00−16sw129783 0.1 101420
3 march, wed
wed300:00−17wsw229784 0.2 101420
03:00−19wsw229881 0.0 101420
06:00−19wsw239782 0.1 101634
09:00−20sw339977 0.0 101645
12:00−16ssw459477 0.0 1017252
15:00−15s469280 0.0 1016338
18:00−15s489390 0.0 1016341
21:00−15s4893100 0.0 1015244
4 march, thu
thu400:00−14s5993100 0.0 1015224
03:00−14s599498 0.0 1013236
06:00−13sse5109497 0.1 1012245
09:00−10s61293100 0.1 1010375
12:00−7s71293100 0.3 1008467
15:00−6s81491100 0.1 1007672
18:00−5s61292100 0.5 1006550
21:00−5s51195100 0.1 1005341